TimePDT,TemperatureF,Dew PointF,Humidity,Sea Level PressureIn,VisibilityMPH,Wind Direction,Wind SpeedMPH,Gust SpeedMPH,PrecipitationIn,Events,Conditions,WindDirDegrees,DateUTC
12:34 AM,60.8,57.2,88,30.02,7.0,ENE,4.6,-,0.07,Rain,Rain,70,2012-11-01 07:34:00
12:56 AM,60.1,55.9,86,30.02,6.0,East,3.5,-,0.11,Rain,Rain,80,2012-11-01 07:56:00
1:56 AM,60.1,59.0,96,30.02,10.0,Calm,Calm,-,0.05,Rain,Light Rain,0,2012-11-01 08:56:00
2:56 AM,60.1,59.0,96,30.02,10.0,ENE,3.5,-,0.05,Rain,Light Rain,70,2012-11-01 09:56:00
3:56 AM,59.0,59.0,100,30.01,10.0,Calm,Calm,-,0.11,Rain,Light Rain,0,2012-11-01 10:56:00
4:56 AM,59.0,59.0,100,30.01,10.0,WNW,4.6,-,0.03,Rain,Light Rain,300,2012-11-01 11:56:00
5:30 AM,59.0,57.2,94,30.01,10.0,West,3.5,-,0.01,Rain,Light Rain,260,2012-11-01 12:30:00
5:56 AM,60.1,57.9,93,30.03,10.0,WSW,3.5,-,0.01,Rain,Light Rain,250,2012-11-01 12:56:00
6:56 AM,60.1,59.0,96,30.02,10.0,Calm,Calm,-,0.00,,Overcast,0,2012-11-01 13:56:00
7:56 AM,60.1,59.0,96,30.04,10.0,Calm,Calm,-,0.00,,Overcast,0,2012-11-01 14:56:00
8:56 AM,61.0,57.0,87,30.05,9.0,Calm,Calm,-,0.01,,Overcast,0,2012-11-01 15:56:00
9:56 AM,-9999,-9999,N/A,30.06,10.0,Calm,Calm,-,0.00,,Overcast,0,2012-11-01 16:56:00
10:20 AM,-9999,-9999,N/A,30.05,10.0,Calm,Calm,-,N/A,,Partly Cloudy,0,2012-11-01 17:20:00
10:47 AM,62.6,57.2,82,30.04,10.0,Calm,Calm,-,N/A,,Mostly Cloudy,0,2012-11-01 17:47:00
10:56 AM,62.1,57.9,86,30.06,10.0,Calm,Calm,-,N/A,,Mostly Cloudy,0,2012-11-01 17:56:00
11:56 AM,64.0,59.0,84,30.06,10.0,North,3.5,-,N/A,,Mostly Cloudy,350,2012-11-01 18:56:00
12:56 PM,64.0,57.9,80,30.05,10.0,Calm,Calm,-,N/A,,Overcast,0,2012-11-01 19:56:00
1:56 PM,64.9,57.9,78,30.04,10.0,North,3.5,-,N/A,,Overcast,350,2012-11-01 20:56:00
2:56 PM,66.9,55.9,68,30.03,10.0,North,6.9,-,N/A,,Scattered Clouds,10,2012-11-01 21:56:00
3:56 PM,64.9,57.0,75,30.04,10.0,NNW,10.4,-,N/A,,Overcast,340,2012-11-01 22:56:00
4:56 PM,64.9,55.0,70,30.04,10.0,NW,8.1,-,N/A,,Mostly Cloudy,320,2012-11-01 23:56:00
5:56 PM,63.0,55.9,78,30.03,10.0,NW,4.6,-,N/A,,Clear,320,2012-11-02 00:56:00
6:56 PM,62.1,55.0,78,30.04,10.0,NW,3.5,-,N/A,,Clear,320,2012-11-02 01:56:00
7:56 PM,61.0,54.0,78,30.05,10.0,NW,5.8,-,N/A,,Clear,320,2012-11-02 02:56:00
8:56 PM,59.0,52.0,78,30.06,10.0,Calm,Calm,-,N/A,,Clear,0,2012-11-02 03:56:00
9:56 PM,57.9,51.1,78,30.06,10.0,Calm,Calm,-,N/A,,Clear,0,2012-11-02 04:56:00
10:56 PM,57.0,53.1,87,30.07,10.0,Calm,Calm,-,N/A,,Clear,0,2012-11-02 05:56:00
11:56 PM,55.0,51.1,86,30.08,10.0,Calm,Calm,-,N/A,,Clear,0,2012-11-02 06:56:00